Location: Czu?�w
(50.1404°N, 18.9919°E)
Time: 04:30:18
(UTC+00:00)

Cosmos 2058 - Pass Details

Date: 27 October 2020
Orbit: 562 x 584 km, 82.5° (Epoch: 25 November)

Event Time Altitude Azimuth Distance (km) Brightness Sun altitude
Rises 17:22:55 0° 349° (N) 2,769 6.6 -18.8°
Reaches altitude 10° 17:25:06 10° 349° (NNW) 1,867 5.7 -19.2°
Maximum altitude 17:29:13 84° 262° (W) 573 2.8 -19.8°
Drops below altitude 10° 17:33:18 10° 174° (S) 1,852 5.4 -20.5°
Enters shadow 17:35:07 - 174° (S) 2,607 6.2 -20.8°
